Flag for U.S.A. Weather past 2 weeks in New Orleans, Louisiana, U.S.A.

Now
70 °F

Sunny.


Feels Like: 75 °F
Forecast: 69 / 83 °F
Wind: 22 mph from Northeast

Location: Lakefront Airport

Current Time: Sep 23, 2014 at 8:31:36 AM

Latest Report: Sep 23, 2014 at 7:53 AM


Visibility: 10 mi

Pressure: 30.07 "Hg

Humidity: 66%

Dew point: 58 °F

Location of New OrleansLocation

Historic Weather in New Orleans — Graph

°F

New Orleans temperature yesterday

Maximum temperature yesterday: 88 °F (at 3:53 PM)
Minimum temperature yesterday: 78 °F (at 12:53 AM)
Average temperature yesterday: 82 °F

Past Weeks' High & Low Weather Summary

 TemperatureHumidityPressure
High91 °F (Sep 9, 2:53 PM)91% (Sep 19, 1:53 AM)30.11 "Hg (Sep 19, 1:53 AM)
Low71 °F (Sep 23, 5:53 AM)49% (Sep 22, 8:53 PM)29.85 "Hg (Sep 18, 3:53 PM)
Average82 °F74%29.98 "Hg
* Reported Sep 8 6:53 AM — Sep 23 6:53 AM, New Orleans, Weather by CustomWeather, © 2014

Note: Actual official high and low records may vary slightly from our data, if they occured in-between our weather recording intervals... More about our weather records

Advertising

New Orleans weather history for previous 24 hours

 ConditionsComfort  
Time TempWeatherWind HumidityBarometerVisibility
6:53 AM
Sep 23
71 °FClear.20 mph63%30.06 "Hg10 mi
5:53 AM71 °FClear.23 mph61%30.04 "Hg10 mi
4:53 AM72 °FClear.22 mph59%30.03 "Hg10 mi
3:53 AM73 °FClear.22 mph59%30.03 "Hg10 mi
2:53 AM74 °FClear.23 mph57%30.03 "Hg10 mi
1:53 AM75 °FClear.26 mph60%30.03 "Hg10 mi
12:53 AM76 °FClear.28 mph60%30.03 "Hg10 mi
11:53 PM
Sep 22
78 °FClear.26 mph56%30.03 "Hg10 mi
10:53 PM79 °FClear.28 mph54%30.03 "Hg10 mi
9:53 PM80 °FClear.25 mph52%30.02 "Hg10 mi
8:53 PM82 °FClear.22 mph49%30.02 "Hg10 mi
7:53 PM83 °FSunny.21 mph53%30.00 "Hg10 mi
6:53 PM84 °FPassing clouds.20 mph59%29.97 "Hg10 mi
5:53 PM86 °FSunny.17 mph57%29.96 "Hg10 mi
4:53 PM87 °FScattered clouds.18 mph63%29.95 "Hg10 mi
3:53 PM88 °FSunny.14 mph65%29.94 "Hg10 mi
2:53 PM86 °FPassing clouds.14 mph65%29.96 "Hg10 mi
1:53 PM86 °FSunny.8 mph63%29.98 "Hg10 mi
12:53 PM86 °FSunny.5 mph59%30.01 "Hg10 mi
11:53 AM85 °FSunny.3 mph61%30.03 "Hg10 mi
10:53 AM85 °FSunny.6 mph61%30.03 "Hg10 mi
9:53 AM83 °FSunny.8 mph68%30.03 "Hg10 mi
8:53 AM82 °FSunny.8 mph74%30.03 "Hg10 mi
Weather by CustomWeather, © 2014

See weather overviewHow to use our weather pages